Weather in Korshev

Ukraine / Ivano-Frankovsk District     48°40′23″N   25°01′15″E
temp.,
°C
wind,
m/s
gust,
m/s
humid.,
%
clouds,
%
prec.,
mm/h
press.,
hPa
HPBL,
m
17 august, wed
wed1700:00+18wnw3789100 0.1 1009189
03:00+18wnw4108486 0.1 1008402
06:00+16wnw4119246 0.1 1009342
09:00+19nw688491 0.1 1010527
12:00+24nnw566489 0.0 10101042
15:00+26nnw565667 0.1 10101590
18:00+22nw578133 2.1 1011450
21:00+19wnw34925 2.7 101279
18 august, thu
thu1800:00+17wnw34955 0.0 101272
03:00+16wnw35955 0.0 101299
06:00+16wnw24955 0.0 101271
09:00+20nw45844 0.0 1013304
12:00+26nnw44570 0.0 10131079
15:00+28n444694 0.0 10112056
18:00+26e2356100 0.0 1012306
21:00+23sw116195 0.0 101311
19 august, fri
fri1900:00+22wnw116673 0.0 101313
03:00+19wnw11790 0.0 101311
06:00+17w11853 0.0 101311
09:00+22e11635 0.0 1013234
12:00+28ese23435 0.0 10131187
15:00+30e22353 0.0 10121760
18:00+30ene33355 0.0 10111752
21:00+23e48541 0.0 1011122
20 august, sat
sat2000:00+20sse22655 0.0 101222
03:00+19se2269100 0.0 101229
06:00+18se357292 0.0 101174
09:00+23se46575 0.0 1011301
12:00+30se563933 0.0 10111073
15:00+33ese443185 0.0 10091771
18:00+32ene55341 0.1 10071332
21:00+20sw81586100 1.8 1012339
21 august, sun
sun2100:00+19sw1184100 0.0 101013
03:00+18wnw2595100 1.1 1012139
06:00+18wnw389894 0.1 1012240
09:00+19nw5790100 0.1 1012460
12:00+24wnw4472100 0.0 1012845
15:00+25wnw5464100 0.0 1011936
18:00+23wnw6773100 0.1 1011573
21:00+19wnw499276 0.7 1012293